CDT,Max TemperatureF,Mean TemperatureF,Min TemperatureF,Max Dew PointF,MeanDew PointF,Min DewpointF,Max Humidity, Mean Humidity, Min Humidity, Max Sea Level PressureIn, Mean Sea Level PressureIn, Min Sea Level PressureIn, Max VisibilityMiles, Mean VisibilityMiles, Min VisibilityMiles, Max Wind SpeedMPH, Mean Wind SpeedMPH, Max Gust SpeedMPH,PrecipitationIn, CloudCover, Events, WindDirDegrees
2012-10-1,64,50,35,48,41,32,93,69,37,29.96,29.87,29.80,10,10,10,14,5,22,0.00,2,,296
2012-10-2,64,45,26,41,33,27,100,67,30,29.95,29.88,29.79,10,10,10,17,3,24,0.00,0,,163
2012-10-3,71,54,37,43,38,34,93,53,27,29.92,29.88,29.83,10,9,4,7,3,,0.00,0,,232
2012-10-4,57,44,32,46,39,30,93,78,63,29.91,29.73,29.60,10,9,1,24,10,33,0.01,6,Rain-Snow,184
2012-10-5,37,34,32,36,31,28,100,90,81,30.02,29.84,29.74,10,7,1,22,16,31,0.02,8,Rain-Snow,281
2012-10-6,42,36,30,30,26,19,100,76,39,30.18,30.12,30.02,10,9,2,14,8,21,0.00,5,Snow,307
2012-10-7,48,37,26,25,23,18,93,59,30,30.09,29.91,29.77,10,10,10,15,7,24,0.00,3,,222
2012-10-8,48,42,37,39,29,18,100,65,39,29.77,29.61,29.50,10,10,4,13,6,18,0.21,6,Rain,196
2012-10-9,44,37,30,39,34,27,100,87,61,29.82,29.64,29.56,10,10,4,18,9,25,0.00,7,Rain-Snow,262
2012-10-10,41,34,28,34,26,19,100,72,45,29.93,29.88,29.82,10,9,4,13,7,21,0.01,6,Rain-Snow,277
2012-10-11,41,34,28,32,29,21,100,85,49,30.29,30.04,29.86,10,9,2,16,6,23,0.02,7,Rain-Snow,291
2012-10-12,44,32,19,30,20,10,100,65,25,30.37,30.24,29.99,10,10,10,13,4,18,0.00,3,,188
2012-10-13,46,38,30,39,33,19,100,77,42,30.00,29.80,29.71,10,10,7,13,7,22,0.00,7,Rain,171
2012-10-14,50,39,28,37,29,21,100,75,34,29.84,29.81,29.78,10,6,0,9,1,17,0.00,4,Fog,356
2012-10-15,55,40,24,36,30,23,100,71,36,29.90,29.83,29.73,10,10,0,12,2,,0.00,3,Fog-Rain,173
2012-10-16,66,55,44,46,42,34,93,68,46,29.71,29.50,29.39,10,10,10,12,8,17,0.00,2,,186
2012-10-17,53,45,37,48,44,36,100,89,76,29.39,29.24,29.11,10,9,2,14,5,23,0.03,5,Rain,127
2012-10-18,51,48,46,48,47,45,100,95,87,29.41,29.21,29.09,10,7,2,9,1,,0.98,8,Rain,147
2012-10-19,46,40,35,45,41,36,100,90,71,29.71,29.61,29.42,10,9,0,7,1,,0.03,8,Fog-Rain,76
2012-10-20,53,42,30,43,35,30,100,85,51,29.78,29.74,29.71,10,6,0,8,1,,0.00,5,Fog,180
2012-10-21,57,46,35,46,41,34,100,84,59,29.95,29.85,29.79,10,8,3,12,3,,0.02,2,Rain,174
2012-10-22,53,48,42,45,41,39,100,80,58,30.11,30.04,29.94,10,10,7,12,4,16,0.00,4,,46
2012-10-23,48,45,42,48,43,39,100,91,76,30.02,29.86,29.74,10,10,4,15,9,21,0.15,8,Rain-Thunderstorm,107
2012-10-24,51,46,42,52,48,41,100,94,87,29.88,29.82,29.75,10,7,2,9,2,,0.15,8,Rain,311
2012-10-25,42,37,32,41,34,28,100,91,81,29.87,29.77,29.70,10,7,1,14,9,22,0.37,8,Rain-Snow,305
2012-10-26,33,30,26,30,25,19,93,77,64,30.20,30.08,29.87,10,10,5,20,12,30,0.00,8,Snow,261
2012-10-27,33,28,24,23,20,16,86,70,51,30.30,30.24,30.20,10,10,7,14,5,20,0.00,7,Snow,259
2012-10-28,32,26,21,30,26,21,100,93,86,30.31,30.29,30.26,10,6,1,8,1,,0.04,8,Snow,180
2012-10-29,44,36,28,34,29,25,100,82,46,30.33,30.31,30.28,10,9,5,10,1,,0.00,6,Snow,125
2012-10-30,37,29,21,27,21,16,100,72,41,30.29,30.20,30.06,10,10,10,9,2,,0.00,0,,38
2012-10-31,41,26,12,21,15,3,100,64,21,30.06,29.96,29.86,10,10,10,8,2,,0.00,2,,341